Location: ?
(35.4554°N, 139.3092°E)
Time: 22:41:55
(UTC+00:00)

IRS-1D - Pass Details

Date: 21 April 2021
Orbit: 740 x 816 km, 98.6° (Epoch: 10 May)

Event Time Altitude Azimuth Distance (km) Brightness Sun altitude
Rises 16:59:06 0° 13° (NNE) 3,275 7.6 -32.4°
Reaches altitude 10° 17:01:24 10° 14° (NNE) 2,355 6.7 -32.1°
Enters shadow 17:05:16 52° 17° (NNE) 988 4.2 -31.5°
